sat.trackr.live / text

‹ back to catalog

STARLINK-34449

NORAD 64465 · 2025-130AD

PAYLOAD ACTIVE UNKNOWN

§ Identity

Operator
Country
US
Launch date
2025-06-18
Launch site
AFETR
Launch vehicle
Mass (kg)
RCS (m²)

Purposes: comms

External: N2YO · Heavens-Above · Gunter

§ Orbital elements

Epoch: 2026-05-25T03:30:07.814592Z

Period
93.85 min
Inclination
53.1575°
Eccentricity
0.0001078
Mean motion
15.34395065 rev/d
Perigee alt
462.0 km
Apogee alt
463.5 km
Semi-major
6,840.9 km
B*
5.9931e-4
RAAN
93.0567°
Arg perigee
80.9616°
Mean anomaly
279.1509°
Rev number
5,241

§ Raw data

STARLINK-344491 64465U 25130AD  26145.14592378  .00019923  00000+0  59931-3 0  99962 64465  53.1575  93.0567 0001078  80.9616 279.1509 15.34395065 52415

JSON: /api/v1/satellites/64465 · /tle

For live sub-satellite position, see the globe view (requires WebGL).

§ Visibility from observer

Set your observer location to see the next 7 days of passes ≥ 10°. The values pass through the URL so the page stays shareable.

No JS? Fill the form by hand. The geolocation button needs JavaScript.